Погода в Майске

Россия / Республика Алтай     52°19′55″N   88°08′30″E
темп.,
°C
ветер,
м/с
пор.,
м/с
влажн.,
%
обл.,
%
осадки,
мм/ч
давл.,
гПа
погр.,
м
20 июня, вс
вс2001:00+13ююв1192100 1.5 100311
04:00+12зюз119699 0.1 100429
07:00+13зсз0198100 0.2 1004111
10:00+14сз1193100 0.1 1003355
13:00+14з2394100 0.6 1005639
16:00+9з2699100 10.2 1009451
19:00+6зюз3799100 13.2 1014584
22:00+5зюз1498100 2.2 1016783
21 июня, пн
пн2101:00+4ююв2498100 4.3 1016245
04:00+4юв2397100 0.1 101481
07:00+6юв23900 0.1 1013161
10:00+15ююз2639100 0.0 10101658
13:00+17юз2537100 0.0 10082213
16:00+18юз1348100 0.0 10081902
19:00+15с236270 0.0 1008278
22:00+9всв018755 0.0 100911
22 июня, вт
вт2201:00+9юв1183100 0.0 100810
04:00+9в1182100 0.0 100719
07:00+11в1175100 0.0 1006177
10:00+15ссз2162100 0.0 1005652
13:00+10зсз4797100 0.8 1010598
16:00+9юз1295100 2.3 1013238
19:00+8з1298100 3.3 1015202
22:00+7ю1196100 0.1 101538
23 июня, ср
ср2301:00+7ююз1194100 0.1 101511
04:00+5юв119491 0.0 101510
07:00+8вюв1192100 0.0 101590
10:00+10сз1281100 0.4 1014572
13:00+9зсз2294100 2.0 1015399
16:00+14з125731 0.3 10131248
19:00+13сз225765 0.4 1012957
22:00+9юз1174100 0.1 101312
24 июня, чт
чт2401:00+7з0098100 3.6 101420
04:00+6вюв119775 0.3 101218
07:00+7в1195100 0.3 1010110
10:00+8сз1198100 2.1 1010246
13:00+8сз1297100 3.3 1010297
16:00+8зсз1197100 1.1 1011214
19:00+8зсз1196100 1.1 1011184
22:00+7зюз1198100 0.0 101314